Weather in Kuchury

Russia / Ulyanovsk Oblast     53°58′37″N   48°23′45″E
temp.,
°C
wind,
m/s
gust,
m/s
humid.,
%
clouds,
%
prec.,
mm/h
press.,
hPa
HPBL,
m
5 march, fri
fri501:00−2wsw3493100 0.6 999104
04:00−4w1297100 1.1 100043
07:00−4nne1198100 1.2 100031
10:00−3n3496100 2.6 1001331
13:00−4n4594100 0.9 1003471
16:00−4nnw4588100 1.0 1006554
19:00−9w128869 0.0 100921
22:00−10wsw339156 0.0 101237
6 march, sat
sat601:00−11wsw36940 0.0 101292
04:00−10wsw510941 0.0 1013191
07:00−12wsw489466 0.0 1014167
10:00−10wnw489264 0.0 1015261
13:00−8nw477893 0.0 1015527
16:00−9nnw248196 0.0 1015374
19:00−13wnw0186100 0.0 101421
22:00−14sw1183100 0.0 101420
7 march, sun
sun701:00−15wsw22850 0.0 101320
04:00−16wsw33910 0.0 101335
07:00−15wsw359669 0.0 1013102
10:00−12w479378 0.0 1012299
13:00−8wsw488324 0.0 1011741
16:00−6sw598150 0.1 1009944
19:00−7ssw6138699 0.0 1006638
22:00−7ssw81590100 0.1 1004831
8 march, mon
mon801:00−6ssw91691100 0.8 9981005
04:00−4sw81493100 2.0 997963
07:00−8w7158489 0.1 999580
10:00−8wsw7148245 0.1 1002512
13:00−4sw8137454 0.0 10021080
16:00−4ssw7117633 0.0 1000967
19:00−7s5109336 0.0 997277
22:00−8w7138464 0.6 998819
9 march, tue
tue901:00−10w9168780 0.1 1001743
04:00−11w7158889 0.1 1004687
07:00−13w51292100 0.0 1007410
10:00−13w5991100 0.1 1010397
13:00−10w5790100 0.0 1011495
16:00−9w4687100 0.1 1011626
19:00−13wnw2394100 0.0 101249
22:00−17wnw339593 0.0 101336